Date,TemperatureHighF,TemperatureAvgF,TemperatureLowF,DewpointHighF,DewpointAvgF,DewpointLowF,HumidityHigh,HumidityAvg,HumidityLow,PressureMaxIn,PressureMinIn,WindSpeedMaxMPH,WindSpeedAvgMPH,GustSpeedMaxMPH,PrecipitationSumIn
2013-2-1,19,12,5,18,7,0,100,78,65,30.42,29.99,75,19,75,0.00
2013-2-2,31,24,13,30,23,9,100,93,84,30.29,29.96,33,0,33,0.09
2013-2-3,29,26,21,26,22,17,93,87,81,30.10,29.89,0,0,0,0.00
2013-2-4,40,29,13,39,26,11,100,88,66,30.09,29.80,75,8,75,0.14
2013-2-5,48,40,34,41,37,33,100,90,69,29.99,29.81,38,3,38,0.01
2013-2-6,46,35,26,35,31,26,100,85,64,30.23,29.99,75,22,75,0.00
2013-2-7,64,47,34,43,36,31,91,69,43,30.17,29.83,75,17,75,0.00
2013-2-8,48,38,33,46,35,29,100,90,67,30.31,29.81,75,25,75,0.08
2013-2-9,45,34,25,31,24,22,91,69,45,30.40,30.18,75,11,75,0.00
2013-2-10,57,44,34,48,34,22,97,68,40,30.18,29.82,44,20,44,0.06
2013-2-11,53,48,37,53,38,28,100,73,49,30.08,29.80,42,6,42,0.02
2013-2-12,49,38,27,32,29,23,88,69,48,30.14,29.86,75,3,75,0.00
2013-2-13,39,34,30,36,31,28,100,87,69,29.90,29.71,75,13,75,0.03
2013-2-14,54,40,29,42,35,29,100,83,52,29.96,29.82,75,21,75,0.00
2013-2-15,41,35,26,37,31,22,95,84,65,30.12,29.96,75,8,75,0.03
2013-2-16,32,25,18,26,18,11,99,78,51,30.13,29.99,75,8,75,0.00
2013-2-17,34,24,16,16,13,9,90,65,36,30.22,30.07,75,6,75,0.00
2013-2-18,59,42,25,39,27,12,74,56,43,30.17,29.77,45,11,45,0.05
2013-2-19,47,35,24,41,28,18,100,77,54,30.12,29.70,43,25,44,0.26
2013-2-20,32,25,19,18,15,12,79,67,52,30.27,30.12,75,26,75,0.00
2013-2-21,38,27,17,28,20,13,93,76,55,30.31,29.97,75,19,75,0.00
2013-2-22,55,41,29,48,39,27,100,92,73,30.02,29.84,75,14,75,0.38
2013-2-23,47,38,33,39,30,25,96,75,49,29.98,29.86,75,18,75,0.00
2013-2-24,47,33,23,29,25,21,95,74,48,30.10,29.90,75,12,75,0.00
2013-2-25,49,37,26,28,25,22,85,65,43,30.11,29.80,75,7,75,0.00
2013-2-26,53,44,38,52,40,26,99,87,58,29.80,29.34,40,16,40,0.33
2013-2-27,38,36,31,38,35,31,100,99,96,29.74,29.54,37,29,37,0.06
2013-2-28,34,32,31,34,32,30,100,99,96,29.93,29.70,44,30,44,0.02